Location: Ch?enovice
(49.7164°N, 15.2160°E)
Time: 11:57:38
(UTC+00:00)

USA 267 - Pass Details

Date: 09 November 2025
Orbit: 1100 x 1108 km, 123.0° (Epoch: 21 November)

Event Time Altitude Azimuth Distance (km) Brightness Sun altitude
Rises 00:44:03 0° 62° (ENE) 3,922 6.8 -49.1°
Reaches altitude 10° 00:47:19 10° 78° (ENE) 2,959 5.9 -48.7°
Enters shadow 00:48:28 14° 87° (E) 2,688 5.6 -48.6°
